Weather History for Iowa Falls, IA

Change the Weather History Date:

Saturday, March 30, 2013

  Actual Average Record
Temperature  
Mean Temperature 44 °F -  
Max Temperature 55 °F 52 °F 82 °F (1968)
Min Temperature 34 °F 31 °F 2 °F (1964)
Degree Days  
Heating Degree Days 20    
Moisture  
Dew Point 39 °F    
Average Humidity 82    
Maximum Humidity 94    
Minimum Humidity 67    
Precipitation  
Precipitation 0.00 in - - ()
Sea Level Pressure  
Sea Level Pressure 29.96 in    
Wind  
Wind Speed 9 mph (SSW)    
Max Wind Speed 17 mph    
Max Gust Speed 23 mph    
Visibility 8 miles    
Events Rain    
Averages and records for this station are not official NWS values.
T = Trace of Precipitation, MM = Missing Value Source: NWS Daily Summary

Daily Weather History Graph

Daily Weather History Graph

Search for Another Location

Airport:

Trip Planner

Search our weather history database for the weather conditions in past years. The results will help you decide how hot, cold, wet, or windy it might be!

Date:

Astronomy

Mar. 30, 2013 Rise Set
Actual Time 6:58 AM CDT 7:37 PM CDT
Civil Twilight 6:30 AM CDT 8:05 PM CDT
Nautical Twilight 5:56 AM CDT 8:39 PM CDT
Astronomical Twilight 5:22 AM CDT 9:13 PM CDT
Moon 11:49 PM CDT (3/30) 8:49 AM CDT (3/30)
Length of Visible Light 13h 35m
Length of Day
12h 38m
Waning Gibbous, 86% of the Moon is Illuminated
Mar 30
Waning Gibbous
Apr 2
Last Quarter
Apr 10
New
Apr 18
First Quarter
Apr 25
Full

Hourly Weather History & Observations

Time (CDT) Temp. Windchill Dew Point Humidity Pressure Visibility Wind Dir Wind Speed Gust Speed Precip Events Conditions
12:15 AM 38.1 °F 32.3 °F 32.0 °F 79% 30.12 in 10.0 mi SE 8.1 mph - N/A   Clear
12:35 AM 37.6 °F 30.5 °F 32.0 °F 80% 30.10 in 10.0 mi SSE 10.4 mph - N/A   Clear
12:55 AM 37.4 °F 30.8 °F 32.0 °F 81% 30.09 in 10.0 mi SE 9.2 mph - N/A   Clear
1:15 AM 37.4 °F 30.8 °F 31.8 °F 80% 30.08 in 10.0 mi SE 9.2 mph - N/A   Clear
1:35 AM 37.6 °F 30.0 °F 31.8 °F 80% 30.08 in 10.0 mi SSE 11.5 mph - N/A   Clear
1:55 AM 40.1 °F 33.2 °F 32.0 °F 73% 30.08 in 10.0 mi SSE 11.5 mph - N/A   Clear
2:15 AM 41.0 °F 33.9 °F 32.0 °F 70% 30.08 in 10.0 mi SSE 12.7 mph - N/A   Clear
2:35 AM 40.5 °F 33.2 °F 32.4 °F 73% 30.08 in 10.0 mi SSE 12.7 mph - N/A   Mostly Cloudy
2:55 AM 41.0 °F 34.3 °F 32.4 °F 71% 30.07 in 10.0 mi SSE 11.5 mph - N/A   Overcast
3:15 AM 40.8 °F 34.1 °F 32.4 °F 72% 30.07 in 10.0 mi SSE 11.5 mph - N/A   Overcast
3:35 AM 40.3 °F 33.4 °F 32.4 °F 73% 30.06 in 10.0 mi SSE 11.5 mph - N/A   Mostly Cloudy
3:55 AM 40.3 °F 33.9 °F 32.9 °F 75% 30.05 in 10.0 mi SSE 10.4 mph - N/A   Mostly Cloudy
4:15 AM 40.5 °F 34.1 °F 32.9 °F 74% 30.04 in 10.0 mi SSE 10.4 mph - N/A   Overcast
4:35 AM 40.1 °F 33.6 °F 32.9 °F 75% 30.03 in 10.0 mi SSE 10.4 mph - N/A   Mostly Cloudy
4:55 AM 40.1 °F 34.1 °F 33.1 °F 76% 30.02 in 10.0 mi SSE 9.2 mph - N/A   Scattered Clouds
5:15 AM 39.7 °F 34.9 °F 33.3 °F 78% 30.02 in 10.0 mi SSE 6.9 mph - N/A   Scattered Clouds
5:35 AM 38.8 °F - 33.3 °F 80% 30.02 in 10.0 mi Calm Calm - N/A   Mostly Cloudy
5:55 AM 38.3 °F 35.9 °F 33.1 °F 81% 30.02 in 10.0 mi SSE 3.5 mph - N/A   Scattered Clouds
6:15 AM 37.8 °F 34.2 °F 33.1 °F 83% 30.01 in 10.0 mi SE 4.6 mph - N/A   Clear
6:35 AM 37.6 °F 32.3 °F 33.1 °F 84% 30.01 in 10.0 mi SSE 6.9 mph - N/A   Mostly Cloudy
6:55 AM 39.2 °F 34.2 °F 34.2 °F 82% 30.01 in 10.0 mi SSE 6.9 mph - N/A   Overcast
7:15 AM 39.4 °F 32.3 °F 34.7 °F 83% 30.00 in 10.0 mi South 11.5 mph - N/A   Drizzle
7:35 AM 40.1 °F 33.6 °F 35.2 °F 83% 30.01 in 10.0 mi South 10.4 mph - N/A   Overcast
7:55 AM 40.6 °F 33.8 °F 35.8 °F 83% 29.99 in 10.0 mi South 11.5 mph - N/A   Mostly Cloudy
8:15 AM 41.5 °F 35.0 °F 36.9 °F 83% 29.99 in 10.0 mi South 11.5 mph - N/A   Mostly Cloudy
8:35 AM 42.6 °F 36.3 °F 37.6 °F 82% 29.99 in 10.0 mi South 11.5 mph - N/A   Scattered Clouds
8:55 AM 43.7 °F 37.3 °F 38.5 °F 82% 29.97 in 10.0 mi South 12.7 mph - N/A   Light Drizzle
9:15 AM 44.6 °F 39.2 °F 39.2 °F 81% 29.97 in 10.0 mi South 10.4 mph - N/A   Mostly Cloudy
9:35 AM 44.6 °F 39.7 °F 39.2 °F 81% 29.96 in 10.0 mi South 9.2 mph - N/A   Overcast
9:55 AM 45.7 °F 41.0 °F 39.7 °F 80% 29.97 in 10.0 mi SSW 9.2 mph - N/A   Overcast
10:15 AM 49.1 °F - 40.6 °F 73% 29.96 in 10.0 mi South 16.1 mph - N/A   Overcast
10:35 AM 48.2 °F - 41.4 °F 77% 29.95 in 10.0 mi South 13.8 mph - N/A   Overcast
10:55 AM 46.8 °F - 41.5 °F 82% 29.95 in 10.0 mi South 11.5 mph - N/A   Overcast
11:15 AM 46.8 °F - 42.6 °F 85% 29.95 in 10.0 mi South 12.7 mph - N/A   Overcast
11:35 AM 47.5 °F - 43.5 °F 86% 29.94 in 10.0 mi South 16.1 mph 21.9 mph N/A   Overcast
11:55 AM 47.1 °F - 43.7 °F 88% 29.94 in 7.0 mi South 17.3 mph 23.0 mph N/A   Overcast
12:15 PM 47.5 °F - 43.9 °F 87% 29.94 in 7.0 mi South 13.8 mph - N/A   Overcast
12:35 PM 47.7 °F - 44.1 °F 87% 29.93 in 7.0 mi South 11.5 mph - N/A   Overcast
12:55 PM 47.5 °F - 44.1 °F 88% 29.93 in 7.0 mi South 11.5 mph - N/A   Overcast
1:15 PM 46.9 °F - 43.9 °F 89% 29.93 in 7.0 mi South 12.7 mph - N/A   Light Drizzle
1:35 PM 46.6 °F - 43.9 °F 90% 29.93 in 3.0 mi SSW 12.7 mph - N/A   Heavy Drizzle
1:55 PM 46.0 °F 41.4 °F 43.7 °F 92% 29.92 in 2.5 mi SSW 9.2 mph - N/A   Drizzle
2:15 PM 46.2 °F 41.7 °F 43.9 °F 92% 29.92 in 1.8 mi SSW 9.2 mph - N/A Rain Light Rain
2:35 PM 46.4 °F 41.9 °F 44.6 °F 93% 29.91 in 2.0 mi SSW 9.2 mph - N/A   Overcast
2:55 PM 46.6 °F - 44.6 °F 93% 29.90 in 2.5 mi SSW 10.4 mph - N/A   Overcast
3:15 PM 47.1 °F - 45.0 °F 92% 29.91 in 2.5 mi SW 9.2 mph - N/A   Overcast
3:35 PM 48.2 °F - 45.9 °F 92% 29.90 in 3.0 mi SSW 9.2 mph - N/A   Overcast
3:55 PM 49.3 °F - 46.6 °F 90% 29.89 in 4.0 mi SSW 8.1 mph - N/A   Overcast
4:15 PM 49.8 °F - 46.6 °F 89% 29.89 in 5.0 mi SW 9.2 mph - N/A   Overcast
4:35 PM 51.8 °F - 47.1 °F 84% 29.89 in 7.0 mi SW 8.1 mph - N/A   Overcast
4:55 PM 52.7 °F - 47.5 °F 82% 29.88 in 7.0 mi WSW 8.1 mph - N/A   Overcast
5:15 PM 54.0 °F - 48.2 °F 81% 29.88 in 10.0 mi West 8.1 mph - N/A   Mostly Cloudy
5:35 PM 55.2 °F - 47.5 °F 75% 29.87 in 10.0 mi WNW 6.9 mph - N/A   Scattered Clouds
5:55 PM 55.4 °F - 46.4 °F 72% 29.87 in 10.0 mi NW 10.4 mph - N/A   Scattered Clouds
6:15 PM 54.9 °F - 44.2 °F 67% 29.87 in 10.0 mi NNW 12.7 mph - N/A   Clear
6:35 PM 53.8 °F - 43.9 °F 69% 29.88 in 10.0 mi NNW 13.8 mph - N/A   Clear
6:55 PM 51.8 °F - 43.5 °F 73% 29.88 in 10.0 mi NNW 9.2 mph - N/A   Clear
7:15 PM 49.5 °F - 43.0 °F 78% 29.88 in 10.0 mi NNW 5.8 mph - N/A   Clear
7:35 PM 47.1 °F - 41.9 °F 82% 29.88 in 10.0 mi NW 6.9 mph - N/A   Clear
7:55 PM 45.5 °F 41.3 °F 40.8 °F 84% 29.88 in 10.0 mi NNW 8.1 mph - N/A   Clear
8:15 PM 43.9 °F 40.5 °F 39.4 °F 84% 29.89 in 10.0 mi NNW 5.8 mph - N/A   Clear
8:35 PM 42.8 °F 41.1 °F 38.8 °F 86% 29.89 in 10.0 mi NNW 3.5 mph - N/A   Clear
8:55 PM 40.8 °F - 37.6 °F 88% 29.90 in 10.0 mi Calm Calm - N/A   Clear
9:15 PM 41.7 °F - 38.5 °F 88% 29.89 in 10.0 mi Calm Calm - N/A   Clear
9:35 PM 41.4 °F - 38.3 °F 89% 29.90 in 10.0 mi Calm Calm - N/A   Clear
9:55 PM 39.2 °F 37.0 °F 36.0 °F 88% 29.90 in 7.0 mi West 3.5 mph - N/A   Clear
10:35 PM 37.4 °F - 35.1 °F 91% 29.91 in 5.0 mi Calm Calm - N/A   Clear
10:55 PM 36.1 °F 32.3 °F 34.2 °F 93% 29.91 in 5.0 mi West 4.6 mph - N/A   Clear
11:15 PM 34.9 °F 30.8 °F 33.1 °F 93% 29.90 in 4.0 mi WSW 4.6 mph - N/A   Clear
11:35 PM 35.8 °F 31.9 °F 34.0 °F 93% 29.90 in 3.0 mi West 4.6 mph - N/A   Scattered Clouds
11:55 PM 35.1 °F 31.0 °F 33.4 °F 94% 29.90 in 3.0 mi West 4.6 mph - N/A   Overcast